Notices

What's New in latest Release from April 7th, 2021:

- Updated Glossary, including Speed of Maximum Gust, and Total Hourly Precipitation

- Updated national and regional climate services offices contacts and prices information

- Addition of station inventory lists for 1981-2010, 1971-2000, and 1961-1990 Normals.

If you haven't already, please take our survey and provide feedback about our website: https://eccc.sondage-survey.ca/f/LanguageSelection.aspx?s=442ca660-fcf1-47c0-95a9-59707d6fd709

Hourly Data Report for August 14, 2016

TORONTO CITY
ONTARIO

43°40'00.000" N
79°24'00.000" W
112.50 m
6158355
71508
XTO

Download Data

Hourly Data (August 2016)
Hourly Data Report for August 14, 2016
TIME
LST
Temp Definition
°C
Dew Point Definition
°C
Rel Hum Definition
%
Precip. Amount Definition
mm

Wind Dir Definition
10's deg

Wind Spd Definition
km/h
Visibility Definition
km
Stn Press Definition
kPa
Hmdx Definition


Wind Chill Definition


Weather Definition


00:00 24.0 21.5 86 0.0 LegendMM LegendMM   99.59 33   LegendNANA
01:00 24.0 21.4 86 0.0 LegendMM LegendMM   99.59 33   LegendNANA
02:00 22.8 19.5 81 0.0 LegendMM LegendMM   99.58 30   LegendNANA
03:00 22.3 19.1 82 0.0 LegendMM LegendMM   99.63 29   LegendNANA
04:00 22.1 18.6 81 0.0 LegendMM LegendMM   99.75 29   LegendNANA
05:00 22.1 18.2 78 0.0 LegendMM LegendMM   99.85 28   LegendNANA
06:00 21.9 17.3 75 0.0 LegendMM LegendMM   99.92 27   LegendNANA
07:00 21.9 17.4 76 0.0 LegendMM LegendMM   99.94 27   LegendNANA
08:00 22.6 17.4 72 0.0 LegendMM LegendMM   100.04 28   LegendNANA
09:00 24.3 17.0 64 0.0 LegendMM LegendMM   100.07 30   LegendNANA
10:00 25.1 17.2 62 0.0 LegendMM LegendMM   100.12 31   LegendNANA
11:00 27.1 17.2 55 0.0 LegendMM LegendMM   100.14 33   LegendNANA
12:00 26.7 16.1 52 0.0 LegendMM LegendMM   100.14 31   LegendNANA
13:00 27.3 16.3 51 0.0 LegendMM LegendMM   100.12 32   LegendNANA
14:00 27.7 15.9 49 0.0 LegendMM LegendMM   100.15 32   LegendNANA
15:00 28.3 14.8 44 0.0 LegendMM LegendMM   100.14 32   LegendNANA
16:00 27.8 14.7 45 0.0 LegendMM LegendMM   100.15 32   LegendNANA
17:00 27.0 14.6 47 0.0 LegendMM LegendMM   100.25 31   LegendNANA
18:00 25.9 14.7 50 0.0 LegendMM LegendMM   100.28 30   LegendNANA
19:00 25.0 14.7 53 0.0 LegendMM LegendMM   100.32 29   LegendNANA
20:00 24.1 15.6 59 0.0 LegendMM LegendMM   100.40 28   LegendNANA
21:00 23.7 15.7 61 0.0 LegendMM LegendMM   100.44 28   LegendNANA
22:00 22.5 16.9 71 0.0 LegendMM LegendMM   100.53 28   LegendNANA
23:00 21.2 16.7 76 0.0 LegendMM LegendMM   100.57 26   LegendNANA

Notes on Data Quality.

Legend

  • E = Estimated
  • M = Missing
  • NA = Not Available*
  • [empty] = Indicates an unobserved value
Date modified: